Showing default

QIANFAN-10, 60388

Orbit data source: Space-Track

QIANFAN-10, 60388 is a Chinese payload satellite in LEO that was launched on Tue, 06 Aug 2024 UTC via a CHANG ZHENG 6A launch vehicle from the Taiyaun Space Center, China (TSC). Payload-class satellites include a variety of spacecraft equipped with specific instruments for various scientific and technological missions. These include communications satellites like Starlink; space stations such as the ISS; scientific satellites like the Hubble; Earth observation satellites from companies like Planet Labs, Umbra, and HawkEye 360; GPS; miniature CubeSats for education and research; and military/defense satellites.

Loading next visibility...
Identifier
60388, 2024-140K
Orbit
LEO
Country
Flag of CNCN / PRC
Related business
Manufacturer
SECM
Mission
Operational Commercial Communications
Bus & Motor
QIANFAN, Unknown motor
Mass
267 kg wet, ~267 kg dry
Launch date (UTC)
2024-08-06 (2 years ago)
Launch vehicle
CHANG ZHENG 6A
Launch site
Taiyaun Space Center, China (TSC)
Object type
Payload
Rocket body
Debris
Shape & HBR
Box + 1 Pan, 5.0 m
Radar Cross Section
13.200 m², Large (>1 m²)

Expand to show TLE details & history
Last TLE update: 10 hours ago

TLE from 10 hours ago
0 QIANFAN-10
1 60388U 24140K   26118.48398977  .00000063  00000-0  79171-4 0  9997
2 60388  88.9700 284.5200 0016179 135.6059 224.6392 13.51001277 85922
Epoch: 2026-04-28T11:36Z
TLE epoch observation values (Epoch: 2026-04-28T11:36:56.716Z)
Latitude
-0.00003°
Longitude
-106.17496°
Altitude
1,080.114 km
Speed
7.308 km/s
True Right ascension
18h 58m 04s
True Declination
0° 00' 00"
Sunlit
Object was in daylight at epoch
Visualization orbit readout
Latitude
Unknown
Longitude
Unknown
Altitude
Unknown
Speed
Unknown
Apparent Right ascension
Unknown
Apparent Declination
Unknown
Sunlit
N/A
Visualization observer readout
Local Sidereal Time
05:07:00
Azimuth
Unknown
Elevation
Unknown
Doppler factor
Unknown
Orbital elements
Apogee altitude
1,077.671 km
Perigee altitude
1,053.585 km
Semi-major axis
7,443.765 km
Eccentricity
0.00162
Inclination
88.97°
RAAN
284.52°
Arg. of periapsis
135.6059°
True anomaly
224.50912°
Mean anomaly
224.6392°
Eccentric anomaly
224.57414°
Mean motion
3.37951 °/min
Orbital period
106.52 mins
BSTAR
0.000079171
Loading maneuver chart data...
Computing Atmospheric mass density...
Loading historical data...
Loading historical data...
Loading historical data...
Loading historical data...
Loading historical data...
Loading historical data...
Loading historical data...

Documentation

Showing up to 5 results
|